Change the Weather History Date:

Thursday, December 26, 2013

  Actual Average Record
Temperature  
Mean Temperature 38 °F -  
Max Temperature 42 °F 43 °F 53 °F (1998)
Min Temperature 33 °F 33 °F 10 °F (2010)
Degree Days  
Heating Degree Days 28    
Moisture  
Dew Point 36 °F    
Average Humidity 94    
Maximum Humidity 100    
Minimum Humidity 81    
Precipitation  
Precipitation 0.00 in 0.08 in - ()
Sea Level Pressure  
Sea Level Pressure 29.31 in    
Wind  
Wind Speed 6 mph ()    
Max Wind Speed 28 mph    
Max Gust Speed 39 mph    
Visibility 4.3 miles    
Events Fog , Rain    
Averages and records for this station are not official NWS values.
T = Trace of Precipitation, MM = Missing Value Source: Averaged Metar Reports

Daily Weather History Graph

Daily Weather History Graph

Search for Another Location

Airport or City:

Trip Planner

Search our weather history database for the weather conditions in past years. The results will help you decide how hot, cold, wet, or windy it might be!

Date:

Astronomy

Dec. 26, 2013 Rise Set
Actual Time 8:17 AM GMT 3:58 PM GMT
Civil Twilight 7:35 AM GMT 4:39 PM GMT
Nautical Twilight 6:51 AM GMT 5:24 PM GMT
Astronomical Twilight 6:09 AM GMT 6:05 PM GMT
Moon 12:52 AM GMT (12/26) 12:00 PM GMT (12/26)
Length of Visible Light 9h 04m
Length of Day
7h 41m
Last Quarter, 41% of the Moon is Illuminated
Dec 26
Last Quarter
Jan 1
New
Jan 8
First Quarter
Jan 16
Full
Jan 24
Last Quarter

Hourly Weather History & Observations

Time (GMT) Temp. Windchill Dew Point Humidity Pressure Visibility Wind Dir Wind Speed Gust Speed Precip Events Conditions
12:20 AM 35.6 °F - 33.8 °F 93% 29.18 in 4.3 mi Calm Calm - N/A Rain Light Rain
12:50 AM 35.6 °F 32.8 °F 33.8 °F 93% 29.18 in 3.7 mi NNW 3.5 mph - N/A Rain Light Rain
1:20 AM 35.6 °F 30.7 °F 35.6 °F 100% 29.18 in 5.0 mi SE 5.8 mph - N/A Rain Light Rain
1:50 AM 35.6 °F 31.7 °F 35.6 °F 100% 29.21 in 5.0 mi SSE 4.6 mph - N/A Rain Light Rain
2:20 AM 35.6 °F 32.8 °F 35.6 °F 100% 29.21 in 3.7 mi South 3.5 mph - N/A Rain Light Rain
2:50 AM 35.6 °F 31.7 °F 35.6 °F 100% 29.21 in 3.1 mi South 4.6 mph - N/A Rain Rain
3:20 AM 35.6 °F 32.8 °F 35.6 °F 100% 29.24 in 3.1 mi SSE 3.5 mph - N/A Rain Rain
3:50 AM 35.6 °F - 35.6 °F 100% 29.24 in - Calm Calm - N/A Rain Rain
4:20 AM 33.8 °F 30.8 °F 33.8 °F 100% 29.24 in 3.1 mi SE 3.5 mph - N/A   Partly Cloudy
4:50 AM 33.8 °F 30.8 °F 33.8 °F 100% 29.27 in 3.1 mi SSW 3.5 mph - N/A   Scattered Clouds
5:20 AM 33.8 °F 29.6 °F 33.8 °F 100% 29.27 in 4.3 mi South 4.6 mph - N/A   Mostly Cloudy
5:50 AM 33.8 °F 29.6 °F 33.8 °F 100% 29.27 in 4.3 mi South 4.6 mph - N/A   Mostly Cloudy
6:20 AM 35.6 °F 29.2 °F 35.6 °F 100% 29.30 in 0.4 mi SW 8.1 mph - N/A Fog Fog
6:50 AM 35.6 °F 29.9 °F 35.6 °F 100% 29.30 in 0.6 mi SW 6.9 mph - N/A Fog Fog
7:20 AM 35.6 °F 32.8 °F 33.8 °F 93% 29.33 in - Variable 3.5 mph - N/A Fog Fog
7:50 AM 35.6 °F 32.8 °F 33.8 °F 93% 29.33 in 0.4 mi Variable 3.5 mph - N/A Fog Fog
8:20 AM 33.8 °F - 33.8 °F 100% 29.36 in 0.6 mi Variable 2.3 mph - N/A Fog Fog
8:50 AM 33.8 °F 29.6 °F 33.8 °F 100% 29.36 in 0.4 mi SW 4.6 mph - N/A Fog Fog
9:20 AM 33.8 °F 29.6 °F 33.8 °F 100% 29.36 in 0.4 mi SSW 4.6 mph - N/A Fog Fog
9:50 AM 35.6 °F 31.7 °F 35.6 °F 100% 29.39 in 1.6 mi SSW 4.6 mph - N/A   Overcast
10:20 AM 37.4 °F 33.8 °F 37.4 °F 100% 29.39 in 3.7 mi SSW 4.6 mph - N/A   Partly Cloudy
10:50 AM 37.4 °F 32.8 °F 37.4 °F 100% 29.39 in 5.6 mi SSW 5.8 mph - N/A   Partly Cloudy
11:20 AM 37.4 °F 32.1 °F 35.6 °F 93% 29.39 in 6.2 mi SSW 6.9 mph - N/A   Partly Cloudy
11:50 AM 39.2 °F 34.2 °F 37.4 °F 93% 29.42 in 6.2 mi SSW 6.9 mph - N/A   Partly Cloudy
12:20 PM 39.2 °F 33.6 °F 37.4 °F 93% 29.39 in 6.2 mi SSW 8.1 mph - N/A   Partly Cloudy
12:50 PM 41.0 °F 35.8 °F 37.4 °F 87% 29.39 in 6.2 mi SW 8.1 mph - N/A   Partly Cloudy
1:20 PM 41.0 °F 35.8 °F 37.4 °F 87% 29.39 in - SW 8.1 mph - N/A   Clear
1:50 PM 42.8 °F 38.0 °F 37.4 °F 81% 29.42 in 6.2 mi SW 8.1 mph - N/A   Scattered Clouds
2:20 PM 41.0 °F 35.8 °F 37.4 °F 87% 29.42 in 6.2 mi SSW 8.1 mph - N/A   Scattered Clouds
2:50 PM 41.0 °F 37.1 °F 37.4 °F 87% 29.39 in 6.2 mi SSW 5.8 mph - N/A   Scattered Clouds
3:20 PM 41.0 °F 37.1 °F 37.4 °F 87% 29.39 in 6.2 mi SSW 5.8 mph - N/A   Scattered Clouds
3:50 PM 39.2 °F 35.9 °F 37.4 °F 93% 29.42 in 5.6 mi South 4.6 mph - N/A   Scattered Clouds
4:20 PM 39.2 °F 34.2 °F 35.6 °F 87% 29.42 in 5.6 mi South 6.9 mph - N/A   Partly Cloudy
4:50 PM 37.4 °F 32.8 °F 35.6 °F 93% 29.42 in - SSE 5.8 mph - N/A   Clear
5:20 PM 37.4 °F 32.1 °F 35.6 °F 93% 29.42 in - SSE 6.9 mph - N/A   Clear
5:50 PM 37.4 °F 32.1 °F 35.6 °F 93% 29.42 in - SSE 6.9 mph - N/A   Clear
6:20 PM 37.4 °F 31.4 °F 35.6 °F 93% 29.39 in - SSE 8.1 mph - N/A   Clear
6:50 PM 37.4 °F 30.8 °F 35.6 °F 93% 29.36 in - SE 9.2 mph - N/A   Clear
7:20 PM 37.4 °F 30.3 °F 35.6 °F 93% 29.36 in - SSE 10.4 mph - N/A   Clear
7:50 PM 39.2 °F 31.6 °F 37.4 °F 93% 29.36 in - SSE 12.7 mph - N/A   Clear
8:20 PM 39.2 °F 31.6 °F 37.4 °F 93% 29.30 in - SSE 12.7 mph - N/A   Clear
8:50 PM 41.0 °F 32.8 °F 39.2 °F 93% 29.27 in 6.2 mi SSE 16.1 mph 27.6 mph N/A   Partly Cloudy
9:20 PM 41.0 °F 32.5 °F 39.2 °F 93% 29.24 in 6.2 mi SSE 17.3 mph - N/A Rain Light Rain
9:50 PM 41.0 °F 32.8 °F 39.2 °F 93% 29.21 in 6.2 mi SSE 16.1 mph - N/A Rain Light Rain
10:20 PM 42.8 °F 33.5 °F 39.2 °F 87% 29.15 in 6.2 mi SSE 23.0 mph - N/A Rain Light Rain
10:50 PM 42.8 °F 33.5 °F 39.2 °F 87% 29.12 in 6.2 mi SSE 23.0 mph - N/A Rain Light Rain
11:20 PM 42.8 °F 32.7 °F 39.2 °F 87% 29.06 in 6.2 mi SSE 27.6 mph - N/A Rain Light Rain
11:50 PM 42.8 °F 32.7 °F 41.0 °F 93% 29.00 in 6.2 mi SSE 27.6 mph 39.1 mph N/A   Mostly Cloudy